sat.trackr.live / text

‹ back to catalog

STARLINK-4304

NORAD 53414 · 2022-097AC

PAYLOAD ACTIVE UNKNOWN

§ Identity

Operator
Country
US
Launch date
2022-08-10
Launch site
AFETR
Launch vehicle
Mass (kg)
RCS (m²)

Purposes: comms

External: N2YO · Heavens-Above · Gunter

§ Orbital elements

Epoch: 2026-05-25T03:15:45.145152Z

Period
95.44 min
Inclination
53.2120°
Eccentricity
0.0000541
Mean motion
15.08844016 rev/d
Perigee alt
539.4 km
Apogee alt
540.1 km
Semi-major
6,917.9 km
B*
1.0126e-4
RAAN
130.9393°
Arg perigee
90.2953°
Mean anomaly
269.8101°
Rev number
21,018

§ Raw data

STARLINK-43041 53414U 22097AC  26145.13593918  .00001324  00000+0  10126-3 0  99962 53414  53.2120 130.9393 0000541  90.2953 269.8101 15.08844016210184

JSON: /api/v1/satellites/53414 · /tle

For live sub-satellite position, see the globe view (requires WebGL).

§ Visibility from observer

Set your observer location to see the next 7 days of passes ≥ 10°. The values pass through the URL so the page stays shareable.

No JS? Fill the form by hand. The geolocation button needs JavaScript.